Location: Chinna Viriv?da
(16.5281°N, 81.0493°E)
Time: 09:39:26
(UTC+00:00)

USA 229 - Pass Details

Date: 14 April 2026
Orbit: 843 x 1365 km, 63.4° (Epoch: 10 January)

Event Time Altitude Azimuth Distance (km) Brightness Sun altitude
Rises 22:06:12 0° 331° (NNW) 4,236 6.8 -31.8°
Reaches altitude 10° 22:08:57 10° 330° (NNW) 3,316 6.2 -31.2°
Maximum altitude 22:17:08 73° 247° (WSW) 1,413 4.0 -29.4°
Drops below altitude 10° 22:25:33 10° 164° (SSE) 3,402 6.3 -27.5°
Sets 22:28:24 0° 162° (SSE) 4,350 6.9 -26.8°
